Preview of NWS' New Version of Forecast
This preview is not operational and should not be used for support decisions.

Regional Weather Roundup (RWR)

Issued by National Weather Service (NWS)

                            
000
ASUS43 KTOP 200508
RWRKS 

WEATHER ROUNDUP FOR KANSAS
NATIONAL WEATHER SERVICE GOODLAND KS
1200 AM CDT TUE AUG 20 2019

NOTE:  "FAIR" INDICATES FEW OR NO CLOUDS BELOW 12,000 FEET WITH NO
SIGNIFICANT WEATHER AND/OR OBSTRUCTIONS TO VISIBILITY.

KSZ001>006-013>018-027>032-041>047-200600-
NORTHWEST KANSAS
  
CITY           SKY/WX    TMP DP  RH WIND       PRES   REMARKS
GOODLAND       MOCLDY    74  64  71 CALM      30.00R                  
HAYS           CLEAR     76  67  73 E7        29.84F                  
HILL CITY      CLEAR     79  69  71 E5        29.95R                  
RUSSELL        CLEAR     81  69  67 S13       29.91S                  
$$

KSZ061>065-074>080-084>089-200600-
SOUTHWEST KANSAS
  
CITY           SKY/WX    TMP DP  RH WIND       PRES   REMARKS
DODGE CITY     CLEAR     83  64  52 S15       29.97S                  
ELKHART        CLEAR     74  61  65 S10       30.03S                  
GARDEN CITY    CLEAR     77  56  48 SE9       29.96S                  
GREAT BEND     CLEAR     80  70  71 S10       29.94R                  
LIBERAL        CLEAR     80  62  54 SE15      29.98S                  
PRATT          CLEAR     85  69  58 S15       29.95S                  
$$

KSZ066>073-081>083-090>101-200600-
SOUTHEAST KANSAS
  
CITY           SKY/WX    TMP DP  RH WIND       PRES   REMARKS
CHANUTE        CLEAR     80  75  84 S7        29.98S                  
COFFEYVILLE    CLEAR     80  75  84 S6        29.96S                  
HUTCHINSON     CLEAR     85  72  65 S13       29.94S                  
MEDICINE LODGE   N/A     85  70  60 SE6       29.94R                  
NEWTON           N/A     81  75  82 S13       29.96F                  
PARSONS        CLEAR     81  76  84 S3        29.99S                  
WICHITA INTL   PTCLDY    84  75  74 S14       29.94S                  
WICHITA JABRA  CLEAR     85  74  69 S14       29.95S                  
WICHITA MCCONL CLEAR     84  73  68 SE13      29.95F                  
WINFIELD       CLEAR    N/A N/A N/A S14       29.97S                  
$$

KSZ007>012-019>026-033>040-048>060-102>105-200600-
NORTHEAST KANSAS
  
CITY           SKY/WX    TMP DP  RH WIND       PRES   REMARKS
CONCORDIA      CLEAR     84  78  82 S15       29.92S HX  95           
EMPORIA        CLEAR     80  77  90 S13       29.96S                  
LAWRENCE       CLEAR     80  76  87 E5        29.96F                  
MANHATTAN      CLEAR     84  77  79 S7        29.92S                  
MARYSVILLE     CLEAR     81  79  94 SE6       29.93F                  
OLATHE IND     CLEAR     79  76  90 S7        29.99F                  
OLATHE EXE     CLEAR     80  76  87 S7        29.99S                  
SALINA         CLEAR     82  75  79 S10       29.92R                  
TOPEKA BILLARD CLEAR     81  76  84 SE6       29.94F                  
TOPEKA FORBES  CLEAR     81  76  84 SE7       29.96S                  
$$